Wetbulb
58.51 52.34 49.51 49.16 40.54 35.63 32.06 37.00 39.30 42.21 43.85 46.94 49.04 47.49 46.66 47.54 48.05 41.33 60.89 67.42 68.97 69.20 71.01 70.92 71.46 72.20 72.33 72.15 72.17 72.61 72.66 72.72 72.60 72.71 72.65 72.61 72.67 72.67 72.44 72.40 72.26 72.50 71.98 71.85 72.61 72.66 71.86 71.22 71.11
52.14 52.03 48.64 42.98 35.87 29.94 32.67 39.36 40.64 43.49 46.98 49.06 49.22 49.59 49.88 52.50 61.67 62.24 64.08 68.81 69.06 69.66 70.71 70.61 71.24 71.83 72.16 72.13 72.22 72.47 72.68 72.34 72.37 72.32 72.38 71.39 71.27 71.83 71.38 71.57 71.85 71.59 71.91 72.11 71.89 71.87 71.05 70.78 70.20
52.86 52.19 45.07 39.49 32.69 31.00 34.11 41.05 42.64 46.85 47.98 46.81 46.05 49.35 52.22 54.70 63.05 63.52 64.94 69.08 68.67 68.59 70.17 70.76 70.86 71.28 71.85 71.96 71.86 71.99 72.05 71.74 71.80 71.85 71.51 71.07 70.95 70.63 71.16 71.03 71.10 71.60 71.79 70.60 71.56 71.30 70.32 69.68 68.70
48.64 47.53 43.76 36.29 34.07 37.11 39.28 43.27 44.30 43.74 47.39 48.06 47.02 49.78 56.46 60.80 63.55 65.18 67.25 69.50 67.85 67.74 68.70 69.70 69.92 70.83 71.61 71.85 71.73 71.66 71.38 69.30 68.67 69.48 69.72 69.65 69.48 69.75 70.14 70.16 70.17 70.81 70.80 71.01 71.32 70.04 69.81 68.35 67.57
44.86 42.03 35.68 31.76 34.35 37.93 42.57 44.66 44.11 43.89 45.16 47.20 48.33 48.46 54.14 61.76 64.84 66.23 66.96 68.56 67.18 66.50 67.36 68.66 69.43 70.41 71.34 71.77 71.22 70.87 68.40 67.14 66.14 66.91 67.47 66.77 67.58 67.63 68.04 68.96 69.50 70.14 70.14 70.73 70.34 69.42 68.39 67.60 67.06
40.59 39.34 31.74 30.77 35.01 39.99 43.23 44.74 44.58 45.40 46.26 48.30 48.05 52.81 54.51 61.81 63.35 64.50 66.02 66.35 67.13 66.09 66.20 68.37 69.50 69.78 69.58 70.45 70.11 68.72 67.78 66.64 65.89 66.04 66.72 65.98 66.43 67.74 67.26 68.10 68.70 69.53 69.04 69.45 68.86 68.62 67.56 66.61 66.10
38.90 35.41 31.56 31.52 35.14 38.81 42.68 45.43 44.67 45.80 46.26 47.00 50.00 52.39 55.76 60.03 62.24 64.13 65.52 65.76 65.71 65.30 64.91 66.99 67.42 68.07 68.37 68.14 67.89 66.66 67.44 66.73 66.24 66.04 66.58 67.25 66.64 66.63 66.78 67.83 68.11 68.61 68.37 68.15 68.35 67.76 66.21 66.07 65.29
41.38 38.73 33.29 34.92 36.13 38.11 44.02 45.42 46.23 47.03 46.99 50.54 55.36 52.56 53.04 59.18 62.95 64.09 64.44 63.97 64.10 63.98 63.76 64.16 65.02 66.48 66.28 65.37 66.44 66.19 65.65 66.05 66.46 66.65 65.96 66.58 66.52 65.98 66.68 66.75 67.18 67.60 68.43 67.83 67.40 66.35 64.92 65.30 64.41
41.86 34.71 33.33 35.55 37.64 38.63 43.23 43.45 47.20 48.22 46.86 49.60 50.16 56.10 56.99 62.11 63.56 61.97 60.42 60.42 61.31 62.69 62.72 62.94 65.91 65.67 65.38 63.50 64.46 65.90 66.30 65.50 65.70 65.97 66.44 65.12 64.11 65.97 65.37 65.70 65.93 66.91 67.00 67.05 66.05 64.89 63.86 64.35 63.76
40.57 33.99 36.39 41.27 42.79 40.34 43.88 44.64 45.77 44.78 45.42 46.18 49.56 58.53 60.81 62.43 62.31 60.72 59.02 59.52 59.91 60.61 61.58 63.28 63.26 63.76 64.38 64.34 62.53 61.69 63.17 62.86 62.54 63.52 64.14 65.07 64.16 65.23 65.06 65.23 65.51 66.00 66.10 65.84 65.10 63.44 63.56 62.80 60.88
41.48 38.48 42.52 42.53 43.93 43.61 40.91 42.60 43.71 42.93 43.04 46.10 47.10 55.83 59.42 60.98 60.76 60.10 59.57 59.62 60.35 60.54 61.18 62.22 63.33 64.19 63.20 63.31 62.35 62.16 62.78 62.74 61.89 61.45 61.56 62.32 62.61 64.61 64.98 65.09 65.41 64.51 64.75 63.12 62.09 59.55 58.05 59.52 59.14
39.01 42.13 45.54 44.11 45.54 43.19 42.06 43.94 43.11 42.80 46.21 48.60 49.17 56.85 58.75 59.22 59.56 59.72 59.45 58.76 59.42 59.58 60.80 61.65 62.45 63.86 64.30 63.30 62.08 61.83 61.57 61.55 60.72 62.31 61.80 61.94 63.10 63.34 64.14 64.45 63.95 62.87 61.93 59.95 58.58 55.10 55.06 56.80 57.02
41.35 43.52 45.51 46.51 45.91 44.35 45.42 44.22 43.49 45.23 47.90 47.94 47.88 57.77 58.00 58.50 58.79 58.87 59.50 59.82 59.42 59.49 60.54 61.25 61.64 61.45 62.12 63.37 63.06 62.38 61.49 60.77 60.88 63.20 62.47 62.69 63.14 63.15 64.09 63.23 62.49 60.77 59.90 58.69 56.83 54.16 54.74 55.75 56.57
44.38 45.36 45.65 46.29 46.06 45.86 44.55 44.72 41.23 44.95 46.92 45.83 45.75 54.92 56.81 57.28 57.60 56.03 56.16 59.04 59.59 60.72 61.30 61.18 61.37 61.42 61.17 61.82 62.58 62.70 62.08 61.31 61.73 63.23 63.37 63.63 63.99 63.63 63.04 61.84 60.66 60.17 59.62 57.12 55.76 53.82 54.01 55.37 56.66
45.88 41.96 43.77 43.03 43.31 42.81 44.35 38.83 39.88 45.40 45.85 45.11 44.73 48.85 55.44 56.73 56.27 56.02 57.22 58.68 60.31 61.01 62.00 61.27 59.87 58.92 59.18 59.10 60.95 62.44 62.57 62.31 62.60 62.80 63.35 63.56 63.63 62.75 62.19 60.99 59.58 58.98 58.80 57.41 56.45 53.14 53.50 54.99 56.80
42.05 40.30 35.52 42.00 43.22 44.32 41.79 38.60 43.20 45.88 44.34 44.10 44.54 43.69 45.24 53.15 56.04 57.15 57.20 59.65 60.39 60.81 61.01 60.03 60.40 57.20 56.52 58.42 59.55 61.48 62.80 62.49 62.68 62.98 63.24 63.02 62.82 62.16 60.78 59.36 58.40 57.73 56.65 56.13 55.71 54.28 53.35 54.92 55.59
36.81 32.27 35.02 38.64 43.47 42.85 40.43 37.94 42.13 45.06 44.97 43.75 43.98 43.80 44.19 45.02 50.45 53.51 58.09 60.20 60.45 60.65 60.71 59.91 57.94 56.37 56.88 57.81 58.59 59.94 61.56 62.24 62.46 62.30 62.72 62.80 62.38 60.94 59.23 58.25 57.22 55.60 54.93 55.10 55.19 53.82 54.14 53.80 54.13
33.92 33.23 31.92 34.62 38.87 40.56 38.83 39.13 42.20 44.25 44.06 43.60 43.23 44.35 44.25 43.59 49.80 53.78 58.63 60.49 60.39 60.61 60.99 60.38 58.00 56.62 57.27 58.61 59.31 59.73 60.40 60.72 62.04 61.82 61.93 62.58 61.90 59.83 57.67 57.08 56.40 55.67 53.61 54.38 53.75 53.71 53.32 53.64 54.45
38.10 35.57 33.78 36.09 41.04 40.84 39.48 39.78 41.87 43.68 42.75 43.58 43.79 43.29 44.64 44.58 49.28 53.72 58.73 59.82 60.41 60.87 60.41 59.65 58.68 57.54 56.96 56.96 57.32 57.98 58.14 59.53 60.15 61.19 61.72 62.05 61.61 59.08 57.18 57.37 56.07 54.92 53.60 54.61 54.78 53.65 52.93 51.78 52.95
37.56 35.06 33.29 36.54 40.01 40.79 38.65 38.78 42.61 43.39 45.13 44.48 45.56 45.61 46.75 45.73 50.48 54.33 57.54 59.21 59.90 59.84 59.34 59.32 59.11 57.69 57.02 57.45 57.36 57.55 58.29 59.00 59.57 60.20 60.99 61.99 61.64 59.49 57.56 57.78 55.79 55.28 53.41 55.10 53.92 53.58 52.33 51.85 52.61
33.55 32.04 32.40 33.90 39.33 39.34 39.29 37.07 39.91 44.20 44.51 45.72 47.04 46.08 45.52 46.79 50.59 53.85 56.59 58.06 59.13 58.87 58.36 58.41 59.04 58.68 57.65 57.47 58.16 58.41 57.22 58.36 57.98 58.14 59.31 59.61 61.12 60.50 58.68 58.30 57.02 56.63 54.23 55.03 54.92 53.73 52.82 51.55 51.97
30.78 37.77 37.85 37.25 35.05 29.06 39.15 28.35 37.85 41.77 43.28 45.35 46.68 46.26 45.26 46.11 52.52 53.94 55.69 56.48 57.83 58.81 58.82 58.18 58.57 58.47 58.71 58.19 57.21 57.35 56.17 55.86 57.29 57.71 58.33 58.74 59.02 60.11 59.70 58.38 58.49 57.50 57.28 55.39 54.96 54.88 54.55 53.45 52.36
35.92 41.06 39.35 38.52 34.50 33.71 34.39 31.66 34.15 40.89 40.21 43.61 45.37 46.51 46.23 44.81 52.23 53.32 55.30 56.46 57.29 58.51 57.54 57.11 57.88 58.05 58.30 58.31 57.98 57.40 56.87 56.69 56.88 57.67 57.39 58.11 57.76 58.23 59.29 59.07 58.22 58.17 57.55 56.56 55.20 53.95 53.58 53.51 52.91
42.57 38.83 37.89 37.91 35.20 26.79 31.79 32.33 31.97 35.62 39.74 43.70 46.87 47.72 46.87 44.28 51.53 54.16 55.30 56.54 56.36 57.36 56.91 56.36 56.88 58.06 58.00 57.96 58.46 57.53 57.14 56.25 56.20 56.16 55.90 56.52 57.45 57.21 57.24 58.40 57.85 57.60 57.64 56.18 55.89 55.02 53.96 53.18 53.65
38.58 32.76 21.60 22.12 27.22 24.44 34.53 32.43 33.72 40.69 43.84 45.56 46.71 47.63 48.10 46.08 49.38 53.18 53.15 54.73 55.98 55.89 55.91 56.87 56.59 56.14 57.63 58.61 58.35 57.71 57.43 57.15 56.15 55.69 55.34 55.70 55.98 55.90 55.74 56.11 56.99 56.95 57.85 57.70 56.63 56.14 55.24 54.73 53.69
36.02 33.13 23.63 21.01 25.15 28.69 35.57 29.69 34.56 44.50 46.91 47.35 48.28 48.44 49.03 47.94 47.30 53.05 53.86 54.91 55.48 56.05 56.20 56.18 55.93 55.61 56.08 56.98 57.82 58.08 58.06 57.77 56.57 56.41 55.72 54.63 55.36 56.01 55.48 55.08 56.34 56.62 56.76 57.82 57.17 56.30 56.39 56.26 55.32
36.02 31.55 36.37 30.65 30.74 28.74 32.32 35.92 40.88 46.19 46.31 47.12 46.83 46.47 45.23 46.93 46.75 52.83 54.23 54.92 55.56 55.82 56.07 56.41 55.75 55.75 56.12 56.04 56.97 57.68 58.25 57.78 56.98 56.85 56.23 55.18 54.88 55.81 56.73 56.32 56.19 56.79 56.62 56.53 57.14 56.97 55.89 56.25 56.06
36.92 39.27 30.28 34.08 24.37 23.22 29.78 32.00 36.71 41.82 43.43 45.69 45.24 45.15 46.03 47.10 49.56 53.47 53.78 54.70 55.76 56.21 56.21 56.65 56.49 55.97 56.02 56.58 57.48 57.39 57.43 57.96 57.89 57.73 56.81 56.78 55.32 54.74 54.51 54.77 55.86 56.59 57.07 57.02 56.77 56.38 56.87 56.38 56.36
34.24 33.59 34.78 34.90 33.78 28.40 24.91 32.77 44.26 43.03 43.72 44.44 45.70 46.68 46.79 47.69 50.74 53.36 53.93 54.60 55.31 55.65 55.95 55.99 55.88 55.84 56.10 56.37 56.91 57.03 57.26 57.98 58.08 57.64 57.60 57.89 57.20 55.62 54.66 55.16 55.18 55.32 56.43 56.96 56.85 56.80 56.86 56.14 56.07
36.45 34.94 35.49 30.50 29.71 34.42 32.36 32.14 46.04 43.83 44.19 45.68 46.17 47.26 48.39 50.27 51.95 53.40 54.63 54.84 54.60 54.67 55.08 55.14 55.58 55.16 55.54 56.35 56.49 56.19 57.05 57.92 58.05 57.67 57.90 58.06 57.49 57.66 56.61 55.19 54.96 54.48 55.28 55.77 55.87 55.96 56.38 55.24 55.61
MSLP
1010.33 1010.34 1010.77 1011.26 1013.00 1013.84 1013.09 1011.30 1009.58 1008.20 1007.16 1006.12 1005.69 1006.10 1006.04 1006.16 1006.74 1007.55 1006.93 1007.01 1007.42 1007.78 1008.05 1008.38 1008.55 1008.73 1008.86 1009.32 1009.86 1010.04 1010.13 1010.08 1010.36 1010.64 1010.82 1010.99 1011.29 1011.60 1011.84 1012.20 1012.63 1013.14 1013.36 1013.65 1014.00 1014.24 1014.78 1015.16 1015.60
1010.37 1010.60 1011.19 1012.22 1013.60 1014.02 1012.39 1010.18 1008.92 1007.81 1006.57 1005.76 1005.68 1005.77 1006.08 1006.27 1006.49 1006.94 1007.15 1007.07 1007.30 1007.58 1007.96 1008.36 1008.65 1008.90 1009.09 1009.33 1009.73 1010.15 1010.38 1010.45 1010.49 1010.75 1011.04 1011.29 1011.58 1012.02 1012.35 1012.55 1012.85 1013.18 1013.59 1014.00 1014.15 1014.51 1015.22 1015.65 1015.99
1010.27 1010.59 1011.84 1012.83 1013.61 1013.01 1011.51 1009.25 1007.82 1006.73 1006.00 1006.22 1005.60 1005.69 1005.87 1005.95 1006.22 1006.28 1006.03 1006.67 1007.43 1007.80 1008.04 1008.31 1008.60 1008.89 1009.15 1009.45 1009.74 1010.03 1010.41 1010.69 1010.88 1011.08 1011.34 1011.66 1012.07 1012.69 1012.94 1013.06 1013.36 1013.44 1013.86 1014.09 1014.48 1014.97 1015.59 1016.03 1016.34
1010.67 1011.43 1012.80 1013.09 1012.75 1011.56 1010.29 1008.41 1007.52 1007.00 1005.90 1005.56 1005.69 1005.91 1005.79 1005.80 1005.83 1005.98 1006.11 1006.47 1007.36 1007.97 1008.14 1008.32 1008.54 1008.84 1009.12 1009.35 1009.64 1010.01 1010.43 1010.95 1011.23 1011.57 1011.91 1012.12 1012.59 1013.02 1013.78 1014.03 1013.97 1014.02 1013.95 1014.31 1014.71 1015.44 1015.95 1016.27 1016.68
1011.21 1012.33 1013.35 1013.23 1011.98 1010.36 1009.05 1007.71 1007.15 1006.59 1006.04 1005.28 1005.59 1005.82 1006.13 1006.02 1005.96 1006.06 1006.41 1006.66 1007.23 1007.95 1008.17 1008.40 1008.51 1008.75 1008.98 1009.36 1009.52 1010.02 1010.50 1010.95 1011.35 1011.61 1012.11 1012.25 1012.92 1012.84 1014.26 1014.49 1014.51 1014.46 1014.35 1014.61 1015.08 1015.82 1016.25 1016.71 1016.97
1012.02 1012.86 1013.84 1013.22 1011.26 1009.69 1008.20 1007.28 1006.62 1005.75 1005.07 1004.85 1005.50 1006.08 1006.45 1006.24 1006.44 1006.57 1006.82 1007.08 1007.41 1007.90 1008.27 1008.48 1008.64 1008.83 1009.13 1009.45 1009.76 1010.17 1010.48 1010.95 1011.38 1011.71 1011.69 1012.51 1012.42 1012.15 1014.14 1014.81 1014.72 1014.51 1014.68 1014.92 1015.50 1015.96 1016.54 1016.95 1017.34
1011.96 1012.93 1012.97 1012.30 1010.86 1009.38 1007.63 1006.43 1005.83 1004.75 1004.38 1004.67 1004.99 1006.11 1006.64 1006.66 1006.74 1006.88 1007.39 1007.46 1007.73 1008.15 1008.44 1008.56 1008.93 1009.06 1009.33 1009.62 1010.04 1010.43 1010.71 1011.17 1011.65 1011.95 1011.92 1012.11 1012.76 1012.73 1012.49 1014.39 1014.61 1014.48 1015.07 1015.37 1015.81 1016.10 1016.79 1017.22 1017.67
1011.49 1012.16 1012.34 1011.60 1010.49 1008.67 1006.99 1006.15 1005.12 1004.75 1004.50 1004.03 1004.46 1005.79 1006.35 1006.25 1006.83 1007.26 1007.67 1007.80 1008.02 1008.39 1008.70 1008.86 1009.10 1009.28 1009.48 1009.87 1010.16 1010.51 1011.02 1011.27 1011.37 1011.67 1011.87 1012.18 1012.44 1012.70 1012.84 1013.90 1014.31 1014.46 1014.94 1015.76 1016.33 1016.36 1017.04 1017.50 1018.01
1011.00 1011.83 1011.57 1010.27 1009.60 1007.90 1006.76 1006.24 1005.06 1004.74 1004.80 1004.61 1004.44 1004.86 1004.83 1005.33 1006.85 1007.53 1008.06 1008.16 1008.38 1008.73 1008.82 1008.98 1009.11 1009.20 1009.46 1009.82 1010.13 1010.39 1010.80 1010.98 1011.25 1011.53 1011.80 1012.35 1012.62 1012.81 1013.43 1013.72 1014.17 1014.22 1015.13 1015.95 1016.44 1016.74 1017.26 1017.66 1018.23
1010.69 1010.89 1010.00 1008.66 1008.17 1007.52 1006.95 1006.51 1005.95 1005.46 1004.86 1004.82 1004.74 1005.02 1005.23 1005.55 1006.55 1006.99 1007.52 1007.91 1008.29 1008.57 1008.70 1008.79 1009.01 1009.24 1009.36 1009.73 1010.07 1010.36 1010.72 1011.07 1011.29 1011.51 1011.80 1012.22 1012.59 1012.92 1013.15 1013.94 1014.44 1014.25 1015.32 1015.99 1016.62 1017.04 1017.46 1017.94 1018.60
1009.61 1009.10 1008.72 1007.91 1007.59 1007.45 1007.16 1006.74 1006.50 1005.94 1005.44 1004.95 1004.91 1005.10 1005.70 1006.07 1006.64 1006.92 1007.06 1007.17 1007.55 1008.02 1008.41 1008.45 1008.74 1009.12 1009.33 1009.75 1010.09 1010.32 1010.60 1011.08 1011.35 1011.54 1011.98 1012.31 1012.59 1012.94 1013.41 1013.88 1014.58 1014.64 1015.55 1016.14 1016.83 1017.28 1017.78 1018.17 1018.52
1008.75 1008.09 1007.87 1007.13 1007.14 1007.18 1006.87 1006.29 1005.94 1005.86 1005.06 1004.31 1004.33 1004.55 1005.19 1005.83 1006.22 1006.36 1006.57 1006.82 1007.46 1007.81 1008.08 1008.11 1008.36 1008.78 1009.11 1009.46 1009.96 1010.19 1010.57 1010.86 1011.18 1011.26 1011.73 1012.23 1012.48 1012.77 1013.09 1013.72 1014.51 1015.02 1015.83 1016.31 1016.96 1017.44 1017.98 1018.31 1018.88
1007.96 1007.44 1006.93 1006.63 1006.58 1006.58 1006.30 1005.87 1005.67 1005.05 1004.24 1003.92 1004.17 1004.72 1004.92 1005.00 1005.18 1005.55 1006.06 1006.52 1007.05 1007.41 1007.72 1007.82 1007.98 1008.42 1008.94 1009.28 1009.67 1010.07 1010.42 1010.69 1010.86 1011.00 1011.31 1011.64 1011.97 1012.38 1012.95 1013.67 1014.51 1015.13 1015.85 1016.21 1016.91 1017.42 1018.09 1018.52 1019.14
1006.92 1006.77 1006.62 1006.27 1006.09 1006.08 1005.93 1005.15 1005.23 1004.34 1003.68 1003.85 1003.99 1004.33 1004.39 1004.56 1004.52 1005.20 1005.82 1006.18 1006.75 1006.82 1007.25 1007.56 1007.81 1008.10 1008.62 1009.02 1009.36 1009.75 1010.04 1010.32 1010.54 1010.57 1010.78 1010.93 1010.96 1011.61 1012.73 1013.62 1014.48 1015.10 1015.63 1016.35 1016.99 1017.23 1018.07 1018.54 1019.00
1006.64 1006.63 1006.41 1006.16 1005.79 1005.41 1005.13 1004.50 1004.32 1003.96 1003.49 1003.74 1003.51 1003.74 1003.88 1003.95 1004.13 1004.43 1004.55 1005.19 1005.83 1006.16 1006.83 1007.21 1007.59 1007.97 1008.42 1008.71 1009.14 1009.46 1009.69 1010.12 1010.46 1010.37 1010.64 1009.72 1010.77 1011.50 1012.47 1013.52 1014.44 1014.94 1015.45 1016.23 1017.19 1017.71 1018.17 1018.64 1019.03
1006.68 1006.54 1006.57 1005.76 1005.46 1004.89 1005.17 1003.12 1003.64 1003.32 1003.41 1003.37 1003.08 1003.20 1003.73 1003.53 1003.53 1003.48 1003.92 1004.46 1005.50 1005.94 1006.56 1007.06 1007.44 1007.92 1008.43 1008.73 1009.25 1009.40 1009.54 1009.81 1010.30 1010.37 1010.60 1010.66 1011.01 1011.88 1012.86 1013.57 1014.38 1014.68 1015.44 1016.18 1017.30 1017.82 1018.36 1018.68 1019.24
1007.08 1006.88 1006.75 1006.21 1005.36 1005.01 1004.82 1003.62 1003.51 1003.34 1003.40 1003.31 1003.12 1002.65 1002.57 1002.69 1002.85 1003.02 1003.52 1003.91 1004.83 1005.43 1006.31 1006.88 1007.33 1007.82 1008.41 1008.77 1009.25 1009.50 1009.56 1009.75 1010.07 1010.41 1010.64 1010.91 1011.33 1012.28 1013.10 1013.53 1014.24 1014.80 1015.59 1016.27 1016.92 1017.84 1018.17 1018.68 1019.50
1007.59 1007.32 1006.98 1006.45 1005.81 1005.38 1004.81 1003.94 1003.85 1003.46 1003.30 1003.13 1002.90 1002.40 1002.11 1001.98 1001.67 1001.67 1002.79 1003.57 1004.49 1005.35 1006.28 1006.73 1007.28 1007.76 1008.29 1008.68 1009.17 1009.60 1009.75 1009.93 1009.98 1010.24 1010.48 1010.95 1011.51 1012.32 1013.17 1013.63 1014.53 1014.82 1015.76 1016.64 1017.04 1017.62 1018.22 1018.61 1019.42
1007.34 1007.31 1007.28 1006.76 1006.18 1006.06 1005.33 1004.13 1003.87 1003.38 1002.81 1002.67 1002.34 1002.17 1001.70 1001.29 1000.75 1001.56 1002.65 1003.53 1004.28 1005.29 1006.02 1006.53 1007.17 1007.58 1008.07 1008.66 1009.09 1009.57 1009.77 1009.88 1010.11 1010.15 1010.35 1010.76 1011.38 1012.22 1013.03 1013.86 1014.58 1014.90 1015.90 1016.45 1016.96 1017.57 1018.15 1019.31 1019.29
1007.53 1007.47 1007.44 1007.00 1006.56 1006.70 1005.86 1003.53 1003.10 1002.84 1002.02 1001.85 1001.59 1001.31 1001.05 1001.05 1001.07 1001.69 1002.68 1003.52 1003.81 1004.49 1005.51 1006.17 1006.81 1007.13 1007.73 1008.25 1008.75 1009.23 1009.75 1010.05 1010.26 1010.46 1010.64 1010.58 1011.32 1012.12 1012.95 1013.84 1014.79 1015.17 1015.74 1016.25 1016.82 1017.14 1017.84 1018.75 1019.21
1007.52 1007.52 1007.63 1007.69 1007.57 1007.27 1006.59 1003.78 1002.55 1001.03 1001.33 1000.87 1000.73 1000.48 1000.31 1000.76 1000.90 1001.42 1002.33 1002.91 1003.63 1004.21 1004.84 1005.51 1006.27 1006.59 1007.40 1008.01 1008.64 1009.09 1009.73 1010.17 1010.38 1010.62 1010.74 1011.15 1011.13 1011.92 1012.80 1013.64 1014.56 1015.18 1015.63 1016.16 1016.67 1016.92 1017.32 1018.09 1019.06
1007.66 1007.61 1007.94 1008.43 1008.64 1008.47 1007.66 1004.79 1002.80 1001.32 1000.67 1000.35 999.93 1000.02 999.86 1000.03 1000.46 1000.92 1001.51 1002.58 1002.99 1003.50 1004.58 1005.37 1005.97 1006.41 1007.06 1007.76 1008.26 1008.57 1009.17 1009.74 1010.05 1010.38 1010.77 1011.20 1011.15 1011.66 1012.60 1013.40 1014.17 1014.95 1015.30 1015.89 1016.27 1016.60 1017.09 1017.58 1018.54
1007.72 1007.94 1008.68 1009.12 1009.26 1008.94 1008.59 1008.02 1000.86 1001.32 1000.11 999.48 999.31 998.88 998.92 999.05 999.43 1000.21 1000.54 1000.82 1002.18 1003.23 1004.10 1005.16 1005.65 1006.29 1006.68 1007.41 1007.79 1008.28 1008.89 1009.46 1009.84 1010.37 1010.80 1011.30 1011.43 1011.72 1012.32 1013.09 1013.89 1014.59 1015.35 1015.49 1016.07 1016.44 1017.00 1017.30 1017.91
1008.16 1008.79 1009.43 1009.75 1009.93 1008.78 1007.97 1007.90 1001.47 1001.27 999.60 998.91 998.34 997.95 997.91 998.23 998.64 999.04 999.40 1000.97 1002.33 1003.30 1004.25 1004.93 1005.40 1006.05 1006.39 1007.14 1007.57 1007.90 1008.43 1009.05 1009.78 1010.35 1010.78 1011.22 1011.57 1012.02 1012.49 1012.94 1013.67 1014.39 1014.71 1015.15 1015.69 1016.10 1016.62 1017.14 1017.41
1008.67 1009.91 1010.71 1010.48 1009.92 1008.16 1006.57 1006.41 1002.40 1000.21 999.12 998.00 997.04 996.87 996.79 997.28 997.72 998.42 999.70 1000.81 1001.79 1002.55 1003.61 1004.37 1005.14 1005.70 1006.01 1006.78 1007.29 1007.65 1007.97 1008.51 1009.18 1009.91 1010.58 1011.10 1011.52 1012.01 1012.44 1012.83 1013.49 1013.93 1014.08 1014.77 1015.26 1015.82 1016.22 1016.91 1017.32
1009.34 1010.12 1010.55 1010.17 1009.46 1008.14 1006.41 1004.49 1002.51 1000.77 998.93 997.74 997.19 996.65 995.96 996.46 996.82 997.49 998.26 999.30 1000.60 1001.76 1002.88 1003.64 1004.59 1005.31 1005.65 1006.27 1006.90 1007.39 1007.62 1008.13 1008.79 1009.28 1009.88 1010.56 1011.05 1011.54 1012.08 1012.66 1013.25 1013.51 1013.86 1014.32 1014.97 1015.43 1015.52 1016.18 1016.96
1009.51 1010.13 1010.03 1010.30 1009.43 1008.55 1006.06 1003.62 1001.82 1000.92 1000.01 999.08 997.93 996.69 996.33 996.20 995.79 996.19 997.28 998.65 1000.02 1001.17 1001.94 1002.71 1004.03 1004.86 1005.33 1005.89 1006.60 1007.01 1007.35 1007.75 1008.21 1008.84 1009.49 1009.97 1010.55 1011.25 1011.83 1012.30 1012.76 1013.17 1013.66 1014.03 1014.58 1014.80 1015.13 1015.97 1016.54
1008.20 1009.13 1010.28 1010.41 1009.32 1007.61 1005.23 1003.69 1002.60 1002.34 1001.75 1000.57 998.86 998.64 997.31 996.49 995.67 996.03 997.12 998.01 999.21 1000.45 1001.57 1002.60 1003.55 1004.32 1005.01 1005.74 1006.40 1006.74 1007.16 1007.52 1007.97 1008.48 1008.96 1009.52 1010.23 1010.80 1011.39 1011.92 1012.43 1012.89 1013.23 1013.61 1014.05 1014.50 1014.82 1015.47 1015.91
1008.53 1009.11 1009.67 1010.09 1009.32 1007.55 1006.01 1004.17 1003.53 1003.55 1003.20 1002.17 1000.81 999.35 998.18 997.03 996.60 997.53 998.13 998.92 999.96 1000.94 1001.79 1002.57 1003.46 1004.24 1004.73 1005.34 1006.08 1006.66 1007.01 1007.37 1007.86 1008.37 1008.88 1009.24 1009.76 1010.29 1010.67 1011.11 1011.62 1012.13 1012.59 1012.99 1013.35 1013.68 1014.12 1014.58 1014.76
1007.15 1008.16 1008.98 1009.26 1008.73 1007.99 1006.90 1005.05 1004.35 1004.09 1003.86 1003.21 1001.73 1000.73 999.52 998.92 998.26 998.81 999.21 999.62 1000.51 1001.48 1002.43 1003.30 1004.04 1004.84 1005.26 1005.78 1006.38 1006.78 1007.05 1007.30 1007.63 1007.99 1008.44 1008.89 1009.39 1009.85 1010.20 1010.61 1011.00 1011.48 1011.95 1012.44 1012.74 1013.05 1013.29 1013.65 1013.93
Wind_Speed
5 3 2 5 5 5 4 8 3 5 2 4 3 5 7 3 4 5 1 10 6 9 10 10 12 12 15 16 15 15 15 16 18 17 18 20 21 20 21 20 20 19 21 23 22 22 23 25 23
4 3 5 3 6 2 6 5 5 6 7 1 1 4 3 2 2 5 5 7 9 9 10 8 12 12 13 15 15 15 17 17 16 16 16 18 18 18 18 19 18 19 20 21 23 24 24 24 22
6 3 4 4 4 7 6 5 2 10 5 3 2 2 7 5 2 11 5 11 8 7 8 10 13 13 13 14 15 16 17 17 16 16 15 15 15 14 14 14 16 20 20 21 22 24 24 22 22
2 5 5 3 9 7 7 6 1 4 8 5 3 3 1 2 6 7 8 12 9 7 6 8 13 13 14 16 16 17 17 19 19 17 16 15 13 12 8 10 15 18 20 20 23 25 22 21 21
4 4 1 3 8 6 6 9 5 6 5 7 4 4 1 6 5 9 8 10 11 7 5 8 12 13 14 16 18 19 24 22 20 19 18 17 14 12 6 10 15 15 17 21 24 22 21 19 20
4 4 2 6 9 4 6 6 5 9 8 4 5 4 3 0 6 7 6 6 8 9 6 7 14 13 14 13 14 17 21 20 20 16 16 16 16 22 11 15 17 16 18 22 22 21 20 17 19
7 5 6 5 6 7 5 4 5 5 3 6 8 6 1 4 1 7 6 6 7 7 7 8 8 10 12 12 11 9 14 13 13 15 16 22 22 17 19 18 19 18 18 21 21 21 18 18 19
6 5 3 6 4 11 4 4 3 4 6 2 9 7 5 8 8 7 6 7 7 6 6 6 6 7 8 7 11 9 10 11 13 15 16 20 20 19 18 18 22 24 20 18 19 20 17 19 18
4 3 6 9 9 7 3 7 5 4 3 5 5 7 4 13 12 7 4 4 4 3 6 6 8 7 7 6 6 9 10 12 15 16 15 14 9 12 14 12 21 23 19 17 18 18 16 20 19
5 6 11 7 8 4 6 6 9 7 12 6 2 4 5 16 15 13 9 8 6 7 6 8 7 7 8 5 5 5 6 6 5 7 9 9 9 9 14 14 21 21 19 18 17 17 18 17 9
7 10 9 6 5 4 5 8 2 4 11 9 6 5 8 10 10 10 9 9 12 7 5 7 7 8 8 7 5 3 3 4 4 5 5 7 7 7 7 7 6 7 14 9 10 11 7 11 9
5 8 13 5 6 4 7 6 6 6 16 11 10 9 13 14 14 14 11 9 9 7 8 7 7 8 8 5 6 6 5 5 4 7 10 7 6 8 10 8 8 7 7 9 7 4 7 9 8
5 5 8 7 8 7 10 15 11 14 18 14 7 10 16 17 17 10 8 7 7 9 8 8 8 7 7 8 6 6 7 5 6 6 10 11 10 13 10 9 8 7 6 8 8 7 7 9 8
5 15 13 9 11 9 12 18 4 12 11 10 8 13 15 15 19 8 8 10 12 10 11 8 9 8 8 6 8 7 6 5 4 4 7 15 9 11 10 9 8 8 8 7 7 8 6 7 8
7 9 8 5 5 8 6 7 9 12 9 10 10 10 13 17 11 16 15 14 16 12 12 12 9 7 7 7 4 5 6 6 5 4 5 7 11 11 11 9 8 8 7 9 7 6 4 6 7
4 2 2 3 7 7 8 19 8 11 8 10 12 8 10 15 16 17 14 13 12 12 14 10 8 8 7 6 5 3 4 6 5 5 5 8 9 10 9 8 7 8 7 8 7 8 6 6 7
2 4 3 3 5 5 7 9 4 7 7 10 11 10 10 11 10 10 13 15 15 14 14 12 10 9 10 9 5 3 4 5 6 4 6 10 10 9 8 7 7 8 7 7 9 4 7 7 6
7 4 2 4 4 5 11 15 7 8 7 8 10 11 11 8 18 16 16 15 14 13 14 12 9 10 10 5 5 3 3 3 4 6 6 11 10 11 7 6 6 8 6 6 4 7 3 5 7
3 3 3 4 5 4 7 16 12 10 6 9 9 9 12 12 8 9 13 14 15 15 16 15 12 12 10 7 5 3 2 3 2 5 7 10 10 12 10 7 6 7 9 8 6 5 6 3 5
7 5 4 5 2 4 9 24 18 10 15 9 11 11 13 5 8 13 14 15 19 19 17 15 15 15 10 9 6 3 3 2 2 3 7 8 12 13 10 11 9 9 8 8 6 7 4 4 4
4 4 3 6 5 4 7 23 23 22 8 7 8 9 8 10 11 14 16 17 18 20 19 18 17 15 9 11 8 5 4 3 2 3 5 3 12 13 12 10 9 8 8 7 7 6 7 5 3
4 2 2 2 2 5 3 16 21 18 15 11 10 8 10 9 12 14 16 16 20 19 16 13 16 15 13 11 9 12 7 5 3 4 4 4 8 10 12 11 8 8 5 7 7 6 7 5 9
3 3 4 3 1 2 5 5 14 6 11 15 9 8 10 9 17 18 20 22 18 18 16 13 13 15 14 13 10 9 8 5 4 4 7 6 5 7 10 12 11 8 8 8 8 6 5 4 6
6 5 3 2 3 8 10 11 24 9 18 16 15 11 10 9 15 18 18 14 14 15 15 12 14 14 14 14 12 13 12 10 7 7 7 6 6 5 6 9 11 10 9 8 8 6 7 6 6
6 6 3 3 5 7 4 13 20 22 20 15 16 10 8 9 13 15 16 16 18 21 20 15 16 17 15 13 12 13 13 13 12 10 9 9 7 6 8 10 11 9 8 9 8 7 6 5 4
3 7 6 4 3 3 5 9 8 7 11 6 8 10 10 9 12 18 22 21 20 21 21 19 16 17 15 15 15 13 12 9 8 9 7 6 7 8 7 6 7 8 8 8 9 7 6 7 6
4 4 1 1 7 6 6 7 6 14 18 19 15 12 13 13 9 19 20 18 19 19 21 20 19 18 17 18 15 15 12 11 9 8 8 8 7 7 9 9 9 9 9 10 9 8 9 11 11
7 6 2 3 4 5 6 5 3 12 18 18 18 15 14 13 5 12 16 18 17 16 15 15 16 17 18 16 13 13 12 12 10 9 10 9 8 9 8 8 8 8 10 11 12 11 13 14 12
4 3 2 2 3 4 4 3 8 13 16 18 17 15 16 15 5 4 7 7 8 9 10 10 12 13 14 14 12 11 11 12 10 9 10 10 9 10 10 11 11 11 10 11 12 13 13 14 15
5 4 5 3 2 3 5 4 8 7 15 17 20 17 17 16 13 11 10 11 10 9 9 7 6 6 6 7 8 8 9 10 12 11 11 10 10 10 12 12 12 12 13 11 12 13 12 12 14
Wind_Direction
139 120 84 42 59 65 268 261 257 296 295 212 153 155 189 152 158 212 300 172 146 155 170 177 167 155 144 141 136 136 138 132 129 128 130 135 137 136 137 138 136 137 136 134 131 128 130 125 118
132 106 44 85 95 82 265 249 249 251 260 284 134 74 67 230 105 137 123 184 163 153 166 171 165 160 150 142 140 140 140 137 131 127 128 141 138 137 144 140 141 143 139 138 134 131 132 124 118
142 63 91 109 135 192 219 226 42 331 319 283 188 61 160 197 162 169 200 146 134 142 160 174 166 161 156 148 144 144 140 136 130 125 126 129 134 141 142 143 146 141 145 147 139 134 130 125 123
114 17 31 118 223 241 215 257 190 306 311 206 233 167 19 345 165 196 152 138 136 148 160 170 168 164 161 156 154 147 131 112 107 108 114 119 126 137 156 157 152 151 152 146 139 138 132 130 125
41 59 83 256 252 246 231 253 287 254 230 238 189 181 235 335 112 133 145 147 145 150 160 167 167 166 166 170 164 146 134 130 122 131 127 122 119 92 195 185 169 163 153 146 134 137 131 128 126
57 101 87 244 248 260 265 230 244 231 223 220 117 130 204 151 141 154 123 130 134 143 139 158 168 155 168 172 161 157 147 142 147 146 147 160 169 151 181 210 183 169 156 139 140 136 133 127 130
131 106 213 245 269 290 244 254 265 263 122 210 151 139 246 235 170 105 115 123 128 130 136 152 161 157 157 156 169 168 144 151 172 178 176 177 175 165 156 217 189 165 152 141 142 136 128 132 132
123 115 205 234 211 270 230 291 266 38 283 75 134 178 209 208 152 124 118 117 127 146 149 146 149 157 150 154 164 167 188 187 202 194 192 172 165 165 170 211 193 171 138 143 140 131 127 138 133
129 114 213 217 183 230 279 10 306 331 236 282 149 151 221 134 134 124 132 107 120 154 171 164 170 170 164 160 177 189 184 164 175 175 175 164 168 163 187 207 206 157 135 141 138 120 123 136 134
160 188 220 194 215 248 305 336 316 346 323 295 340 17 108 142 164 167 174 165 174 183 187 180 176 175 165 164 161 157 170 165 160 176 169 170 173 183 178 200 198 147 133 136 132 126 128 135 135
201 224 231 250 222 248 267 307 272 289 293 239 256 185 167 160 178 187 190 176 189 187 175 182 172 173 160 169 161 165 160 170 177 172 178 181 170 177 185 169 164 152 134 139 134 124 126 142 137
215 211 227 259 239 267 256 262 266 185 252 252 251 200 168 178 195 200 196 181 180 183 185 174 165 165 158 165 171 173 172 177 174 188 195 186 187 190 167 163 159 158 155 139 136 133 127 138 137
239 239 244 236 246 240 263 262 254 268 259 262 236 170 191 191 202 199 201 190 177 183 183 176 159 160 160 170 169 170 183 187 194 190 191 203 207 181 169 156 155 146 150 146 146 136 134 139 136
238 227 247 259 262 256 258 268 213 258 261 262 201 203 203 198 205 182 174 186 189 178 179 170 170 165 154 160 168 172 174 185 183 177 194 211 180 151 153 151 150 153 154 139 150 147 143 136 140
245 260 260 225 231 242 231 256 228 239 266 254 241 217 213 216 197 205 190 184 184 179 170 172 163 154 160 152 155 163 168 170 191 187 152 139 148 146 152 150 154 153 151 145 150 137 130 126 140
245 227 189 241 200 252 159 263 255 250 260 265 270 233 211 226 211 210 185 178 173 161 171 160 156 152 148 143 175 170 164 169 186 176 164 146 138 141 151 149 153 144 141 143 161 155 141 136 143
283 252 190 288 229 242 184 289 281 313 269 270 274 267 243 219 213 201 184 173 171 165 166 165 156 152 155 155 151 187 163 169 173 152 165 161 150 145 158 150 146 142 147 155 159 142 149 137 136
233 232 171 189 271 325 292 286 290 287 276 276 279 281 270 225 212 196 175 169 162 158 169 165 158 147 151 141 113 127 148 127 176 167 166 154 156 149 144 122 145 142 140 149 134 156 108 139 141
228 236 223 251 276 310 270 295 291 285 264 281 279 282 273 245 228 172 161 161 153 164 173 175 165 160 150 152 144 134 156 153 150 170 174 157 151 154 152 149 148 154 168 161 155 146 131 96 121
237 250 265 272 274 330 309 293 290 265 267 236 264 280 285 233 162 152 160 167 171 170 176 174 179 170 160 164 152 131 134 135 138 143 168 169 154 149 151 154 170 173 165 166 164 164 131 107 177
221 213 201 243 342 297 314 290 295 277 246 265 249 253 280 209 189 164 168 176 172 179 179 176 179 172 161 157 156 129 108 96 129 141 162 152 156 152 154 157 165 169 176 176 173 157 161 139 182
242 215 160 120 78 252 62 286 275 286 276 244 259 244 250 209 196 190 168 174 184 183 174 170 171 172 175 161 162 159 167 168 175 159 153 141 146 145 148 159 154 168 171 174 184 174 177 147 177
219 62 92 113 152 320 164 275 286 322 264 263 248 245 245 210 195 191 186 187 178 173 172 168 161 174 174 179 169 167 167 167 142 157 162 164 144 144 158 165 171 173 190 184 179 164 168 181 164
133 63 34 116 142 259 187 191 278 259 257 256 257 250 233 208 200 199 196 161 163 167 168 165 168 177 175 183 178 177 176 168 160 171 174 173 168 154 158 168 178 186 174 176 183 173 168 179 177
73 72 328 306 202 255 236 187 247 302 278 239 248 243 233 202 196 190 171 169 168 172 172 168 177 187 177 180 185 185 180 176 182 178 185 175 174 174 179 175 191 190 178 180 172 183 170 177 192
159 158 179 250 252 301 235 227 252 302 347 316 275 265 262 230 195 187 186 178 173 173 172 172 175 185 181 187 191 191 181 183 184 178 174 178 192 194 155 175 182 188 184 185 189 188 193 211 218
173 180 193 278 243 244 231 279 254 3 359 354 354 8 354 301 230 192 183 176 169 170 176 172 176 182 185 188 191 192 185 187 189 180 175 179 177 187 191 184 184 182 185 187 193 199 195 203 221
150 147 119 204 273 240 253 247 298 1 354 343 10 354 355 340 260 183 177 171 170 172 165 166 175 181 182 185 189 192 188 188 188 193 196 183 179 180 177 180 192 191 195 190 190 202 211 208 217
145 150 128 231 229 304 305 259 37 6 350 340 348 2 5 360 44 116 142 130 137 144 158 163 170 174 178 181 183 188 189 191 190 195 202 203 195 190 193 192 193 194 199 200 202 210 208 211 219
159 150 158 186 215 244 289 275 18 358 344 340 349 358 22 19 66 75 89 97 104 105 114 118 139 156 165 170 184 192 193 194 194 197 199 199 203 205 205 206 207 204 206 203 209 213 211 206 216